Time,TemperatureF,DewpointF,PressureIn,WindDirection,WindDirectionDegrees,WindSpeedMPH,WindSpeedGustMPH,Humidity,HourlyPrecipIn,Conditions,Clouds,dailyrainin,SoftwareType,DateUTC
2013-10-06 00:00:00,50.7,47.7,29.91,North,0,0.0,0.0,89,0.00,,,0.00,WUHU21623XXSP,2013-10-06 05:00:00,
2013-10-06 00:05:00,50.7,47.7,29.90,North,0,0.0,0.0,89,0.00,,,0.00,WUHU21623XXSP,2013-10-06 05:05:00,
2013-10-06 00:10:00,50.7,47.5,29.90,North,0,0.0,0.0,89,0.00,,,0.00,WUHU21623XXSP,2013-10-06 05:10:00,
2013-10-06 00:15:00,50.7,47.5,29.89,North,0,0.0,0.0,89,0.00,,,0.00,WUHU21623XXSP,2013-10-06 05:15:00,
2013-10-06 00:20:00,50.7,47.5,29.90,North,0,0.0,0.0,89,0.00,,,0.00,WUHU21623XXSP,2013-10-06 05:20:00,
2013-10-06 00:26:00,50.7,47.5,29.90,North,0,0.0,0.0,89,0.00,,,0.00,WUHU21623XXSP,2013-10-06 05:26:00,
2013-10-06 00:31:00,50.5,47.4,29.89,North,0,0.0,0.0,89,0.00,,,0.00,WUHU21623XXSP,2013-10-06 05:31:00,
2013-10-06 00:36:00,50.5,47.4,29.89,North,0,0.0,0.0,89,0.00,,,0.00,WUHU21623XXSP,2013-10-06 05:36:00,
2013-10-06 00:41:00,50.4,47.4,29.89,North,0,0.0,0.0,89,0.00,,,0.00,WUHU21623XXSP,2013-10-06 05:41:00,
2013-10-06 00:46:00,50.4,47.2,29.89,North,0,0.0,0.0,89,0.00,,,0.00,WUHU21623XXSP,2013-10-06 05:46:00,
2013-10-06 00:51:00,50.2,47.0,29.89,North,0,0.0,0.0,89,0.00,,,0.00,WUHU21623XXSP,2013-10-06 05:51:00,
2013-10-06 00:56:00,50.2,47.0,29.89,North,0,0.0,0.0,89,0.00,,,0.00,WUHU21623XXSP,2013-10-06 05:56:00,
2013-10-06 01:01:00,49.8,46.6,29.89,North,0,0.0,0.0,89,0.00,,,0.00,WUHU21623XXSP,2013-10-06 06:01:00,
2013-10-06 01:06:00,49.8,46.6,29.89,North,0,0.0,0.0,89,0.00,,,0.00,WUHU21623XXSP,2013-10-06 06:06:00,
2013-10-06 01:11:00,49.8,46.6,29.89,North,0,0.0,0.0,89,0.00,,,0.00,WUHU21623XXSP,2013-10-06 06:11:00,
2013-10-06 01:16:00,49.6,46.5,29.89,North,0,0.0,0.0,89,0.00,,,0.00,WUHU21623XXSP,2013-10-06 06:16:00,
2013-10-06 01:21:00,49.6,46.5,29.89,North,0,0.0,0.0,89,0.00,,,0.00,WUHU21623XXSP,2013-10-06 06:21:00,
2013-10-06 01:26:00,49.6,46.5,29.89,North,0,0.0,0.0,89,0.00,,,0.00,WUHU21623XXSP,2013-10-06 06:26:00,
2013-10-06 01:31:00,49.5,46.0,29.89,North,0,0.0,0.0,88,0.00,,,0.00,WUHU21623XXSP,2013-10-06 06:31:00,
2013-10-06 01:36:00,49.3,45.8,29.89,North,0,0.0,0.0,88,0.00,,,0.00,WUHU21623XXSP,2013-10-06 06:36:00,
2013-10-06 01:41:00,49.5,46.0,29.89,North,0,0.0,0.0,88,0.00,,,0.00,WUHU21623XXSP,2013-10-06 06:41:00,
2013-10-06 01:46:00,49.6,45.9,29.89,North,0,0.0,0.0,87,0.00,,,0.00,WUHU21623XXSP,2013-10-06 06:46:00,
2013-10-06 01:51:00,49.6,45.9,29.89,North,0,0.0,0.0,87,0.00,,,0.00,WUHU21623XXSP,2013-10-06 06:51:00,
2013-10-06 01:56:00,49.6,45.6,29.89,North,0,0.0,0.0,86,0.00,,,0.00,WUHU21623XXSP,2013-10-06 06:56:00,
2013-10-06 02:01:00,49.6,45.2,29.89,North,0,0.0,0.0,85,0.00,,,0.00,WUHU21623XXSP,2013-10-06 07:01:00,
2013-10-06 02:06:00,49.6,45.2,29.89,North,0,0.0,0.0,85,0.00,,,0.00,WUHU21623XXSP,2013-10-06 07:06:00,
2013-10-06 02:11:00,49.6,45.2,29.89,North,0,0.0,0.0,85,0.00,,,0.00,WUHU21623XXSP,2013-10-06 07:11:00,
2013-10-06 02:16:00,49.6,44.9,29.89,North,0,0.0,0.0,84,0.00,,,0.00,WUHU21623XXSP,2013-10-06 07:16:00,
2013-10-06 02:21:00,49.6,44.9,29.89,North,0,0.0,0.0,84,0.00,,,0.00,WUHU21623XXSP,2013-10-06 07:21:00,
2013-10-06 02:26:00,49.6,44.9,29.89,North,0,0.0,0.0,84,0.00,,,0.00,WUHU21623XXSP,2013-10-06 07:26:00,
2013-10-06 02:31:00,49.5,44.4,29.88,North,0,0.0,0.0,83,0.00,,,0.00,WUHU21623XXSP,2013-10-06 07:31:00,
2013-10-06 02:36:00,49.5,44.4,29.88,North,0,0.0,0.0,83,0.00,,,0.00,WUHU21623XXSP,2013-10-06 07:36:00,
2013-10-06 02:41:00,49.3,44.3,29.88,North,0,0.0,0.0,83,0.00,,,0.00,WUHU21623XXSP,2013-10-06 07:41:00,
2013-10-06 02:46:00,49.3,44.3,29.88,North,0,0.0,0.0,83,0.00,,,0.00,WUHU21623XXSP,2013-10-06 07:46:00,
2013-10-06 02:51:00,49.1,44.1,29.87,North,0,0.0,0.0,83,0.00,,,0.00,WUHU21623XXSP,2013-10-06 07:51:00,
2013-10-06 02:56:00,48.9,44.1,29.87,North,0,0.0,0.0,83,0.00,,,0.00,WUHU21623XXSP,2013-10-06 07:56:00,
2013-10-06 03:01:00,48.7,43.9,29.87,North,0,0.0,0.0,83,0.00,,,0.00,WUHU21623XXSP,2013-10-06 08:01:00,
2013-10-06 03:06:00,48.7,43.8,29.87,North,0,0.0,0.0,83,0.00,,,0.00,WUHU21623XXSP,2013-10-06 08:06:00,
2013-10-06 03:11:00,48.7,43.8,29.88,North,0,0.0,0.0,83,0.00,,,0.00,WUHU21623XXSP,2013-10-06 08:11:00,
2013-10-06 03:16:00,48.4,43.4,29.87,North,0,0.0,0.0,83,0.00,,,0.00,WUHU21623XXSP,2013-10-06 08:16:00,
2013-10-06 03:21:00,48.4,43.4,29.87,North,0,0.0,0.0,83,0.00,,,0.00,WUHU21623XXSP,2013-10-06 08:21:00,
2013-10-06 03:26:00,48.4,43.4,29.87,North,0,0.0,0.0,83,0.00,,,0.00,WUHU21623XXSP,2013-10-06 08:26:00,
2013-10-06 03:31:00,48.2,43.2,29.87,North,0,0.0,0.0,83,0.00,,,0.00,WUHU21623XXSP,2013-10-06 08:31:00,
2013-10-06 03:36:00,48.0,43.1,29.87,North,0,0.0,0.0,83,0.00,,,0.00,WUHU21623XXSP,2013-10-06 08:36:00,
2013-10-06 03:41:00,48.0,43.1,29.87,North,0,0.0,0.0,83,0.00,,,0.00,WUHU21623XXSP,2013-10-06 08:41:00,
2013-10-06 03:46:00,48.0,42.7,29.88,North,0,0.0,0.0,82,0.00,,,0.00,WUHU21623XXSP,2013-10-06 08:46:00,
2013-10-06 03:51:00,48.0,42.7,29.87,North,0,0.0,0.0,82,0.00,,,0.00,WUHU21623XXSP,2013-10-06 08:51:00,
2013-10-06 03:56:00,47.8,42.6,29.87,North,0,0.0,0.0,82,0.00,,,0.00,WUHU21623XXSP,2013-10-06 08:56:00,
2013-10-06 04:01:00,47.7,42.4,29.87,North,0,0.0,0.0,82,0.00,,,0.00,WUHU21623XXSP,2013-10-06 09:01:00,
2013-10-06 04:06:00,47.5,42.2,29.87,North,0,0.0,0.0,82,0.00,,,0.00,WUHU21623XXSP,2013-10-06 09:06:00,
2013-10-06 04:11:00,47.5,42.2,29.87,North,0,0.0,0.0,82,0.00,,,0.00,WUHU21623XXSP,2013-10-06 09:11:00,
2013-10-06 04:16:00,47.3,42.4,29.86,North,0,0.0,0.0,83,0.00,,,0.00,WUHU21623XXSP,2013-10-06 09:16:00,
2013-10-06 04:21:00,47.1,42.2,29.87,North,0,0.0,0.0,83,0.00,,,0.00,WUHU21623XXSP,2013-10-06 09:21:00,
2013-10-06 04:26:00,47.1,42.2,29.87,North,0,0.0,0.0,83,0.00,,,0.00,WUHU21623XXSP,2013-10-06 09:26:00,
2013-10-06 04:28:00,46.9,42.0,29.87,North,0,0.0,0.0,83,0.00,,,0.00,WUHU21623XXSP,2013-10-06 09:28:00,
2013-10-06 04:33:00,46.9,42.0,29.87,North,0,0.0,0.0,83,0.00,,,0.00,WUHU21623XXSP,2013-10-06 09:33:00,
2013-10-06 04:38:00,46.9,42.0,29.87,North,0,0.0,0.0,83,0.00,,,0.00,WUHU21623XXSP,2013-10-06 09:38:00,
2013-10-06 04:43:00,46.8,41.9,29.87,North,0,0.0,0.0,83,0.00,,,0.00,WUHU21623XXSP,2013-10-06 09:43:00,
2013-10-06 04:48:00,46.6,41.9,29.87,North,0,0.0,0.0,83,0.00,,,0.00,WUHU21623XXSP,2013-10-06 09:48:00,
2013-10-06 04:53:00,46.6,41.7,29.87,North,0,0.0,0.0,83,0.00,,,0.00,WUHU21623XXSP,2013-10-06 09:53:00,
2013-10-06 04:58:00,46.4,41.6,29.87,North,0,0.0,0.0,83,0.00,,,0.00,WUHU21623XXSP,2013-10-06 09:58:00,
2013-10-06 05:03:00,46.2,41.4,29.87,North,0,0.0,0.0,83,0.00,,,0.00,WUHU21623XXSP,2013-10-06 10:03:00,
2013-10-06 05:08:00,46.2,41.4,29.87,North,0,0.0,0.0,83,0.00,,,0.00,WUHU21623XXSP,2013-10-06 10:08:00,
2013-10-06 05:13:00,46.0,41.5,29.87,North,0,0.0,0.0,84,0.00,,,0.00,WUHU21623XXSP,2013-10-06 10:13:00,
2013-10-06 05:18:00,46.0,41.5,29.87,North,0,0.0,0.0,84,0.00,,,0.00,WUHU21623XXSP,2013-10-06 10:18:00,
2013-10-06 05:23:00,46.0,41.2,29.87,North,0,0.0,0.0,83,0.00,,,0.00,WUHU21623XXSP,2013-10-06 10:23:00,
2013-10-06 05:28:00,46.2,41.4,29.87,North,0,0.0,0.0,83,0.00,,,0.00,WUHU21623XXSP,2013-10-06 10:28:00,
2013-10-06 05:33:00,46.2,41.4,29.87,North,0,0.0,0.0,83,0.00,,,0.00,WUHU21623XXSP,2013-10-06 10:33:00,
2013-10-06 05:38:00,46.2,41.4,29.87,North,0,0.0,0.0,83,0.00,,,0.00,WUHU21623XXSP,2013-10-06 10:38:00,
2013-10-06 05:43:00,46.2,41.1,29.87,North,0,0.0,0.0,82,0.00,,,0.00,WUHU21623XXSP,2013-10-06 10:43:00,
2013-10-06 05:48:00,46.2,41.1,29.87,North,0,0.0,0.0,82,0.00,,,0.00,WUHU21623XXSP,2013-10-06 10:48:00,
2013-10-06 05:53:00,46.2,41.1,29.87,North,0,0.0,0.0,82,0.00,,,0.00,WUHU21623XXSP,2013-10-06 10:53:00,
2013-10-06 05:58:00,46.2,41.1,29.87,North,0,0.0,0.0,82,0.00,,,0.00,WUHU21623XXSP,2013-10-06 10:58:00,
2013-10-06 06:03:00,46.2,41.1,29.87,North,0,0.0,0.0,82,0.00,,,0.00,WUHU21623XXSP,2013-10-06 11:03:00,
2013-10-06 06:08:00,46.0,40.9,29.87,North,0,0.0,0.0,82,0.00,,,0.00,WUHU21623XXSP,2013-10-06 11:08:00,
2013-10-06 06:13:00,46.0,40.9,29.87,North,0,0.0,0.0,83,0.00,,,0.00,WUHU21623XXSP,2013-10-06 11:13:00,
2013-10-06 06:18:00,45.7,40.8,29.88,North,0,0.0,0.0,83,0.00,,,0.00,WUHU21623XXSP,2013-10-06 11:18:00,
2013-10-06 06:24:00,45.7,40.8,29.87,North,0,0.0,0.0,83,0.00,,,0.00,WUHU21623XXSP,2013-10-06 11:24:00,
2013-10-06 06:29:00,45.5,40.7,29.87,North,0,0.0,0.0,83,0.00,,,0.00,WUHU21623XXSP,2013-10-06 11:29:00,
2013-10-06 06:34:00,45.5,40.7,29.88,North,0,0.0,0.0,83,0.00,,,0.00,WUHU21623XXSP,2013-10-06 11:34:00,
2013-10-06 06:39:00,45.5,40.7,29.88,North,0,0.0,0.0,83,0.00,,,0.00,WUHU21623XXSP,2013-10-06 11:39:00,
2013-10-06 06:44:00,45.3,40.5,29.88,North,0,0.0,0.0,83,0.00,,,0.00,WUHU21623XXSP,2013-10-06 11:44:00,
2013-10-06 06:49:00,45.1,40.5,29.88,North,0,0.0,0.0,83,0.00,,,0.00,WUHU21623XXSP,2013-10-06 11:49:00,
2013-10-06 06:54:00,45.1,40.6,29.88,North,0,0.0,0.0,84,0.00,,,0.00,WUHU21623XXSP,2013-10-06 11:54:00,
2013-10-06 06:59:00,45.1,40.6,29.88,North,0,0.0,0.0,84,0.00,,,0.00,WUHU21623XXSP,2013-10-06 11:59:00,
2013-10-06 07:04:00,45.0,40.4,29.88,North,0,0.0,0.0,84,0.00,,,0.00,WUHU21623XXSP,2013-10-06 12:04:00,
2013-10-06 07:09:00,45.0,40.4,29.88,North,0,0.0,0.0,84,0.00,,,0.00,WUHU21623XXSP,2013-10-06 12:09:00,
2013-10-06 07:14:00,45.0,40.4,29.88,North,0,0.0,0.0,84,0.00,,,0.00,WUHU21623XXSP,2013-10-06 12:14:00,
2013-10-06 07:19:00,45.0,40.4,29.88,North,0,0.0,0.0,84,0.00,,,0.00,WUHU21623XXSP,2013-10-06 12:19:00,
2013-10-06 07:24:00,45.0,40.4,29.88,North,0,0.0,0.0,84,0.00,,,0.00,WUHU21623XXSP,2013-10-06 12:24:00,
2013-10-06 07:29:00,45.0,40.4,29.88,North,0,0.0,0.0,84,0.00,,,0.00,WUHU21623XXSP,2013-10-06 12:29:00,
2013-10-06 07:34:00,45.0,40.4,29.88,North,0,0.0,0.0,84,0.00,,,0.00,WUHU21623XXSP,2013-10-06 12:34:00,
2013-10-06 07:39:00,45.0,40.4,29.88,North,0,0.0,0.0,84,0.00,,,0.00,WUHU21623XXSP,2013-10-06 12:39:00,
2013-10-06 07:44:00,45.0,40.4,29.88,North,0,0.0,0.0,84,0.00,,,0.00,WUHU21623XXSP,2013-10-06 12:44:00,
2013-10-06 07:49:00,45.0,40.4,29.88,North,0,0.0,0.0,84,0.00,,,0.00,WUHU21623XXSP,2013-10-06 12:49:00,
2013-10-06 07:54:00,45.0,40.4,29.88,North,0,0.0,0.0,84,0.00,,,0.00,WUHU21623XXSP,2013-10-06 12:54:00,
2013-10-06 07:59:00,45.0,40.4,29.88,North,0,0.0,0.0,84,0.00,,,0.00,WUHU21623XXSP,2013-10-06 12:59:00,
2013-10-06 08:04:00,45.0,40.4,29.88,North,0,0.0,0.0,84,0.00,,,0.00,WUHU21623XXSP,2013-10-06 13:04:00,
2013-10-06 08:09:00,45.1,40.6,29.89,North,0,0.0,0.0,84,0.00,,,0.00,WUHU21623XXSP,2013-10-06 13:09:00,
2013-10-06 08:14:00,45.3,40.5,29.88,North,0,0.0,0.0,83,0.00,,,0.00,WUHU21623XXSP,2013-10-06 13:14:00,
2013-10-06 08:19:00,45.3,40.5,29.88,North,0,0.0,0.0,83,0.00,,,0.00,WUHU21623XXSP,2013-10-06 13:19:00,
2013-10-06 08:24:00,45.7,40.7,29.88,North,0,0.0,0.0,83,0.00,,,0.00,WUHU21623XXSP,2013-10-06 13:24:00,
2013-10-06 08:29:00,46.0,41.2,29.88,North,0,0.0,0.0,83,0.00,,,0.00,WUHU21623XXSP,2013-10-06 13:29:00,
2013-10-06 08:34:00,46.2,41.2,29.88,North,0,0.0,0.0,82,0.00,,,0.00,WUHU21623XXSP,2013-10-06 13:34:00,
2013-10-06 08:39:00,46.2,41.1,29.88,North,0,0.0,0.0,82,0.00,,,0.00,WUHU21623XXSP,2013-10-06 13:39:00,
2013-10-06 08:44:00,46.6,41.4,29.88,North,0,0.0,0.0,82,0.00,,,0.00,WUHU21623XXSP,2013-10-06 13:44:00,
2013-10-06 08:49:00,46.9,41.4,29.88,North,0,0.0,0.0,81,0.00,,,0.00,WUHU21623XXSP,2013-10-06 13:49:00,
2013-10-06 08:54:00,47.1,41.4,29.88,North,0,0.0,0.0,81,0.00,,,0.00,WUHU21623XXSP,2013-10-06 13:54:00,
2013-10-06 08:59:00,47.3,41.8,29.88,North,0,0.0,0.0,80,0.00,,,0.00,WUHU21623XXSP,2013-10-06 13:59:00,
2013-10-06 09:04:00,47.3,41.5,29.88,North,0,0.0,0.0,80,0.00,,,0.00,WUHU21623XXSP,2013-10-06 14:04:00,
2013-10-06 09:09:00,47.5,41.6,29.88,North,0,0.0,0.0,80,0.00,,,0.00,WUHU21623XXSP,2013-10-06 14:09:00,
2013-10-06 09:14:00,47.5,41.6,29.88,North,0,0.0,0.0,80,0.00,,,0.00,WUHU21623XXSP,2013-10-06 14:14:00,
2013-10-06 09:19:00,47.5,41.3,29.88,North,0,0.0,0.0,79,0.00,,,0.00,WUHU21623XXSP,2013-10-06 14:19:00,
2013-10-06 09:24:00,47.7,41.4,29.88,North,0,0.0,0.0,79,0.00,,,0.00,WUHU21623XXSP,2013-10-06 14:24:00,
2013-10-06 09:29:00,47.8,41.6,29.89,North,0,0.0,0.0,79,0.00,,,0.00,WUHU21623XXSP,2013-10-06 14:29:00,
2013-10-06 09:34:00,48.0,41.8,29.89,North,0,0.0,0.0,79,0.00,,,0.00,WUHU21623XXSP,2013-10-06 14:34:00,
2013-10-06 09:39:00,48.0,41.8,29.89,North,0,0.0,0.0,79,0.00,,,0.00,WUHU21623XXSP,2013-10-06 14:39:00,
2013-10-06 09:44:00,48.2,41.6,29.89,North,0,0.0,0.0,78,0.00,,,0.00,WUHU21623XXSP,2013-10-06 14:44:00,
2013-10-06 09:49:00,48.2,41.6,29.89,North,0,0.0,0.0,78,0.00,,,0.00,WUHU21623XXSP,2013-10-06 14:49:00,
2013-10-06 09:54:00,48.2,41.6,29.89,North,0,0.0,0.0,78,0.00,,,0.00,WUHU21623XXSP,2013-10-06 14:54:00,
2013-10-06 09:59:00,48.4,41.4,29.89,North,0,0.0,0.0,77,0.00,,,0.00,WUHU21623XXSP,2013-10-06 14:59:00,
2013-10-06 10:04:00,48.4,41.1,29.89,North,0,0.0,0.0,76,0.00,,,0.00,WUHU21623XXSP,2013-10-06 15:04:00,
2013-10-06 10:09:00,48.4,40.7,29.89,North,0,0.0,0.0,75,0.00,,,0.00,WUHU21623XXSP,2013-10-06 15:09:00,
2013-10-06 10:14:00,48.4,40.7,29.89,North,0,0.0,0.0,75,0.00,,,0.00,WUHU21623XXSP,2013-10-06 15:14:00,
2013-10-06 10:19:00,48.6,40.9,29.89,North,0,0.0,0.0,75,0.00,,,0.00,WUHU21623XXSP,2013-10-06 15:19:00,
2013-10-06 10:24:00,48.7,41.1,29.90,North,0,0.0,0.0,75,0.00,,,0.00,WUHU21623XXSP,2013-10-06 15:24:00,
2013-10-06 10:29:00,48.9,41.3,29.90,North,0,0.0,0.0,75,0.00,,,0.00,WUHU21623XXSP,2013-10-06 15:29:00,
2013-10-06 10:34:00,49.1,41.5,29.90,North,0,0.0,0.0,75,0.00,,,0.00,WUHU21623XXSP,2013-10-06 15:34:00,
2013-10-06 10:39:00,49.3,41.1,29.89,North,0,0.0,0.0,74,0.00,,,0.00,WUHU21623XXSP,2013-10-06 15:39:00,
2013-10-06 10:44:00,49.6,41.6,29.89,North,0,0.0,0.0,74,0.00,,,0.00,WUHU21623XXSP,2013-10-06 15:44:00,
2013-10-06 10:49:00,49.8,41.6,29.89,North,0,0.0,0.0,74,0.00,,,0.00,WUHU21623XXSP,2013-10-06 15:49:00,
2013-10-06 10:54:00,50.2,41.8,29.89,North,0,0.0,0.0,73,0.00,,,0.00,WUHU21623XXSP,2013-10-06 15:54:00,
2013-10-06 10:59:00,50.4,42.0,29.89,North,0,0.0,0.0,73,0.00,,,0.00,WUHU21623XXSP,2013-10-06 15:59:00,
2013-10-06 11:04:00,50.7,42.2,29.89,North,0,0.0,0.0,73,0.00,,,0.00,WUHU21623XXSP,2013-10-06 16:04:00,
2013-10-06 11:09:00,51.4,42.8,29.89,North,0,0.0,0.0,72,0.00,,,0.00,WUHU21623XXSP,2013-10-06 16:09:00,
2013-10-06 11:14:00,51.8,42.9,29.89,North,0,0.0,0.0,71,0.00,,,0.00,WUHU21623XXSP,2013-10-06 16:14:00,
2013-10-06 11:19:00,52.2,43.1,29.89,North,0,0.0,0.0,71,0.00,,,0.00,WUHU21623XXSP,2013-10-06 16:19:00,
2013-10-06 11:24:00,52.2,42.4,29.88,North,0,0.0,0.0,69,0.00,,,0.00,WUHU21623XXSP,2013-10-06 16:24:00,
2013-10-06 11:29:00,52.3,42.5,29.89,North,0,0.0,0.0,69,0.00,,,0.00,WUHU21623XXSP,2013-10-06 16:29:00,
2013-10-06 11:34:00,52.7,42.4,29.89,North,0,0.0,0.0,68,0.00,,,0.00,WUHU21623XXSP,2013-10-06 16:34:00,
2013-10-06 11:39:00,52.9,42.6,29.88,North,0,0.0,0.0,68,0.00,,,0.00,WUHU21623XXSP,2013-10-06 16:39:00,
2013-10-06 11:44:00,52.9,42.2,29.89,North,0,0.0,0.0,67,0.00,,,0.00,WUHU21623XXSP,2013-10-06 16:44:00,
2013-10-06 11:49:00,52.7,42.0,29.89,North,0,0.0,0.0,67,0.00,,,0.00,WUHU21623XXSP,2013-10-06 16:49:00,
2013-10-06 11:54:00,52.5,42.3,29.89,North,0,0.0,0.0,68,0.00,,,0.00,WUHU21623XXSP,2013-10-06 16:54:00,
2013-10-06 11:59:00,52.5,41.9,29.89,North,0,0.0,0.0,67,0.00,,,0.00,WUHU21623XXSP,2013-10-06 16:59:00,
2013-10-06 12:04:00,52.5,41.9,29.89,North,0,0.0,0.0,67,0.00,,,0.00,WUHU21623XXSP,2013-10-06 17:04:00,
2013-10-06 12:09:00,52.3,41.7,29.89,North,0,0.0,0.0,67,0.00,,,0.00,WUHU21623XXSP,2013-10-06 17:09:00,
2013-10-06 12:14:00,52.3,41.7,29.89,North,0,0.0,0.0,67,0.00,,,0.00,WUHU21623XXSP,2013-10-06 17:14:00,
2013-10-06 12:19:00,52.7,42.0,29.88,North,0,0.0,0.0,67,0.00,,,0.00,WUHU21623XXSP,2013-10-06 17:19:00,
2013-10-06 12:24:00,52.9,42.2,29.88,North,0,0.0,0.0,67,0.00,,,0.00,WUHU21623XXSP,2013-10-06 17:24:00,
2013-10-06 12:29:00,53.2,42.1,29.88,North,0,0.0,0.0,66,0.00,,,0.00,WUHU21623XXSP,2013-10-06 17:29:00,
2013-10-06 12:34:00,53.6,42.5,29.88,North,0,0.0,0.0,66,0.00,,,0.00,WUHU21623XXSP,2013-10-06 17:34:00,
2013-10-06 12:39:00,54.1,42.8,29.88,North,0,0.0,0.0,65,0.00,,,0.00,WUHU21623XXSP,2013-10-06 17:39:00,
2013-10-06 12:44:00,53.8,42.2,29.89,North,0,0.0,0.0,65,0.00,,,0.00,WUHU21623XXSP,2013-10-06 17:44:00,
2013-10-06 12:49:00,53.4,41.9,29.89,North,0,0.0,0.0,65,0.00,,,0.00,WUHU21623XXSP,2013-10-06 17:49:00,
2013-10-06 12:54:00,52.9,41.4,29.89,North,0,0.0,0.0,65,0.00,,,0.00,WUHU21623XXSP,2013-10-06 17:54:00,
2013-10-06 12:59:00,52.7,41.6,29.89,North,0,0.0,0.0,66,0.00,,,0.00,WUHU21623XXSP,2013-10-06 17:59:00,
2013-10-06 13:04:00,52.5,41.5,29.89,North,0,0.0,0.0,66,0.00,,,0.00,WUHU21623XXSP,2013-10-06 18:04:00,
2013-10-06 13:09:00,52.3,41.3,29.89,North,0,0.0,0.0,66,0.00,,,0.00,WUHU21623XXSP,2013-10-06 18:09:00,
2013-10-06 13:14:00,52.2,41.3,29.89,North,0,0.0,0.0,67,0.00,,,0.00,WUHU21623XXSP,2013-10-06 18:14:00,
2013-10-06 13:19:00,52.3,41.7,29.89,North,0,0.0,0.0,67,0.00,,,0.00,WUHU21623XXSP,2013-10-06 18:19:00,
2013-10-06 13:24:00,52.5,41.9,29.89,North,0,0.0,0.0,67,0.00,,,0.00,WUHU21623XXSP,2013-10-06 18:24:00,
2013-10-06 13:29:00,52.5,41.9,29.89,North,0,0.0,0.0,67,0.00,,,0.00,WUHU21623XXSP,2013-10-06 18:29:00,
2013-10-06 13:34:00,52.5,41.9,29.89,North,0,0.0,0.0,67,0.00,,,0.00,WUHU21623XXSP,2013-10-06 18:34:00,
2013-10-06 13:39:00,52.3,41.7,29.89,North,0,0.0,0.0,67,0.00,,,0.00,WUHU21623XXSP,2013-10-06 18:39:00,
2013-10-06 13:44:00,52.3,41.7,29.89,North,0,0.0,0.0,67,0.00,,,0.00,WUHU21623XXSP,2013-10-06 18:44:00,
2013-10-06 13:49:00,52.3,41.7,29.89,North,0,0.0,0.0,67,0.00,,,0.00,WUHU21623XXSP,2013-10-06 18:49:00,
2013-10-06 13:54:00,52.5,41.7,29.88,North,0,0.0,0.0,67,0.00,,,0.00,WUHU21623XXSP,2013-10-06 18:54:00,
2013-10-06 13:59:00,52.7,42.0,29.88,North,0,0.0,0.0,67,0.00,,,0.00,WUHU21623XXSP,2013-10-06 18:59:00,
2013-10-06 14:04:00,53.2,42.5,29.88,North,0,0.0,0.0,67,0.00,,,0.00,WUHU21623XXSP,2013-10-06 19:04:00,
2013-10-06 14:09:00,53.4,42.7,29.88,North,0,0.0,0.0,67,0.00,,,0.00,WUHU21623XXSP,2013-10-06 19:09:00,
2013-10-06 14:14:00,53.8,43.0,29.88,North,0,0.0,0.0,67,0.00,,,0.00,WUHU21623XXSP,2013-10-06 19:14:00,
2013-10-06 14:20:00,53.8,42.6,29.87,North,0,0.0,0.0,66,0.00,,,0.00,WUHU21623XXSP,2013-10-06 19:20:00,
2013-10-06 14:25:00,54.0,42.8,29.87,North,0,0.0,0.0,66,0.00,,,0.00,WUHU21623XXSP,2013-10-06 19:25:00,
2013-10-06 14:30:00,54.0,42.8,29.87,North,0,0.0,0.0,66,0.00,,,0.00,WUHU21623XXSP,2013-10-06 19:30:00,
2013-10-06 14:35:00,53.8,42.2,29.87,North,0,0.0,0.0,65,0.00,,,0.00,WUHU21623XXSP,2013-10-06 19:35:00,
2013-10-06 14:40:00,54.0,42.8,29.87,North,0,0.0,0.0,66,0.00,,,0.00,WUHU21623XXSP,2013-10-06 19:40:00,
2013-10-06 14:45:00,54.1,43.0,29.87,North,0,0.0,0.0,66,0.00,,,0.00,WUHU21623XXSP,2013-10-06 19:45:00,
2013-10-06 14:50:00,54.0,42.8,29.87,North,0,0.0,0.0,66,0.00,,,0.00,WUHU21623XXSP,2013-10-06 19:50:00,
2013-10-06 14:55:00,54.0,43.0,29.87,North,0,0.0,0.0,66,0.00,,,0.00,WUHU21623XXSP,2013-10-06 19:55:00,
2013-10-06 15:00:00,53.8,42.8,29.87,North,0,0.0,0.0,66,0.00,,,0.00,WUHU21623XXSP,2013-10-06 20:00:00,
2013-10-06 15:05:00,53.8,42.6,29.87,North,0,0.0,0.0,66,0.00,,,0.00,WUHU21623XXSP,2013-10-06 20:05:00,
2013-10-06 15:10:00,53.4,42.7,29.88,North,0,0.0,0.0,67,0.00,,,0.00,WUHU21623XXSP,2013-10-06 20:10:00,
2013-10-06 15:15:00,53.4,42.7,29.88,North,0,0.0,0.0,67,0.00,,,0.00,WUHU21623XXSP,2013-10-06 20:15:00,
2013-10-06 15:20:00,53.2,42.7,29.88,North,0,0.0,0.0,68,0.00,,,0.00,WUHU21623XXSP,2013-10-06 20:20:00,
2013-10-06 15:25:00,53.2,42.7,29.87,North,0,0.0,0.0,68,0.00,,,0.00,WUHU21623XXSP,2013-10-06 20:25:00,
2013-10-06 15:30:00,53.2,42.9,29.88,North,0,0.0,0.0,68,0.00,,,0.00,WUHU21623XXSP,2013-10-06 20:30:00,
2013-10-06 15:35:00,53.2,42.9,29.88,North,0,0.0,0.0,68,0.00,,,0.00,WUHU21623XXSP,2013-10-06 20:35:00,
2013-10-06 15:40:00,53.2,42.9,29.88,North,0,0.0,0.0,68,0.00,,,0.00,WUHU21623XXSP,2013-10-06 20:40:00,
2013-10-06 15:45:00,53.2,42.9,29.88,North,0,0.0,0.0,68,0.00,,,0.00,WUHU21623XXSP,2013-10-06 20:45:00,
2013-10-06 15:50:00,53.2,42.9,29.88,North,0,0.0,0.0,68,0.00,,,0.00,WUHU21623XXSP,2013-10-06 20:50:00,
2013-10-06 15:55:00,53.2,42.9,29.88,North,0,0.0,0.0,68,0.00,,,0.00,WUHU21623XXSP,2013-10-06 20:55:00,
2013-10-06 16:00:00,53.2,42.9,29.88,North,0,0.0,0.0,68,0.00,,,0.00,WUHU21623XXSP,2013-10-06 21:00:00,
2013-10-06 16:05:00,53.2,43.3,29.88,North,0,0.0,0.0,69,0.00,,,0.00,WUHU21623XXSP,2013-10-06 21:05:00,
2013-10-06 16:10:00,53.2,43.3,29.88,North,0,0.0,0.0,69,0.00,,,0.00,WUHU21623XXSP,2013-10-06 21:10:00,
2013-10-06 16:15:00,53.2,43.3,29.88,North,0,0.0,0.0,69,0.00,,,0.00,WUHU21623XXSP,2013-10-06 21:15:00,
2013-10-06 16:20:00,53.2,43.7,29.88,North,0,0.0,0.0,70,0.00,,,0.00,WUHU21623XXSP,2013-10-06 21:20:00,
2013-10-06 16:25:00,53.2,43.7,29.89,North,0,0.0,0.0,70,0.00,,,0.00,WUHU21623XXSP,2013-10-06 21:25:00,
2013-10-06 16:30:00,52.9,43.8,29.89,North,0,0.0,0.0,71,0.00,,,0.00,WUHU21623XXSP,2013-10-06 21:30:00,
2013-10-06 16:35:00,52.9,43.8,29.88,North,0,0.0,0.0,71,0.00,,,0.00,WUHU21623XXSP,2013-10-06 21:35:00,
2013-10-06 16:40:00,52.9,43.8,29.88,North,0,0.0,0.0,71,0.00,,,0.00,WUHU21623XXSP,2013-10-06 21:40:00,
2013-10-06 16:45:00,52.9,43.8,29.88,North,0,0.0,0.0,71,0.00,,,0.00,WUHU21623XXSP,2013-10-06 21:45:00,
2013-10-06 16:50:00,52.9,43.8,29.88,North,0,0.0,0.0,71,0.00,,,0.00,WUHU21623XXSP,2013-10-06 21:50:00,
2013-10-06 16:55:00,53.1,43.9,29.88,North,0,0.0,0.0,71,0.00,,,0.00,WUHU21623XXSP,2013-10-06 21:55:00,
2013-10-06 17:00:00,53.4,44.2,29.88,North,0,0.0,0.0,71,0.00,,,0.00,WUHU21623XXSP,2013-10-06 22:00:00,
2013-10-06 17:05:00,53.8,44.4,29.88,North,0,0.0,0.0,71,0.00,,,0.00,WUHU21623XXSP,2013-10-06 22:05:00,
2013-10-06 17:10:00,54.0,44.4,29.88,North,0,0.0,0.0,70,0.00,,,0.00,WUHU21623XXSP,2013-10-06 22:10:00,
2013-10-06 17:15:00,53.8,44.2,29.88,North,0,0.0,0.0,70,0.00,,,0.00,WUHU21623XXSP,2013-10-06 22:15:00,
2013-10-06 17:20:00,54.1,44.6,29.89,North,0,0.0,0.0,70,0.00,,,0.00,WUHU21623XXSP,2013-10-06 22:20:00,
2013-10-06 17:25:00,54.3,44.2,29.89,North,0,0.0,0.0,69,0.00,,,0.00,WUHU21623XXSP,2013-10-06 22:25:00,
2013-10-06 17:30:00,54.3,44.4,29.89,North,0,0.0,0.0,69,0.00,,,0.00,WUHU21623XXSP,2013-10-06 22:30:00,
2013-10-06 17:35:00,54.3,44.0,29.89,North,0,0.0,0.0,68,0.00,,,0.00,WUHU21623XXSP,2013-10-06 22:35:00,
2013-10-06 17:40:00,54.3,44.0,29.89,North,0,0.0,0.0,68,0.00,,,0.00,WUHU21623XXSP,2013-10-06 22:40:00,
2013-10-06 17:45:00,54.3,44.0,29.88,North,0,0.0,0.0,68,0.00,,,0.00,WUHU21623XXSP,2013-10-06 22:45:00,
2013-10-06 17:50:00,54.3,44.4,29.89,North,0,0.0,0.0,69,0.00,,,0.00,WUHU21623XXSP,2013-10-06 22:50:00,
2013-10-06 17:55:00,54.3,44.4,29.89,North,0,0.0,0.0,69,0.00,,,0.00,WUHU21623XXSP,2013-10-06 22:55:00,
2013-10-06 18:00:00,54.1,44.2,29.89,North,0,0.0,0.0,69,0.00,,,0.00,WUHU21623XXSP,2013-10-06 23:00:00,
2013-10-06 18:05:00,54.1,44.6,29.89,North,0,0.0,0.0,70,0.00,,,0.00,WUHU21623XXSP,2013-10-06 23:05:00,
2013-10-06 18:10:00,54.1,44.6,29.89,North,0,0.0,0.0,70,0.00,,,0.00,WUHU21623XXSP,2013-10-06 23:10:00,
2013-10-06 18:15:00,54.0,44.8,29.89,North,0,0.0,0.0,71,0.00,,,0.00,WUHU21623XXSP,2013-10-06 23:15:00,
2013-10-06 18:20:00,54.0,45.1,29.89,North,0,0.0,0.0,72,0.00,,,0.00,WUHU21623XXSP,2013-10-06 23:20:00,
2013-10-06 18:25:00,53.8,44.9,29.89,North,0,0.0,0.0,72,0.00,,,0.00,WUHU21623XXSP,2013-10-06 23:25:00,
2013-10-06 18:30:00,53.8,45.7,29.89,North,0,0.0,0.0,74,0.00,,,0.00,WUHU21623XXSP,2013-10-06 23:30:00,
2013-10-06 18:35:00,53.4,45.3,29.89,North,0,0.0,0.0,74,0.00,,,0.00,WUHU21623XXSP,2013-10-06 23:35:00,
2013-10-06 18:40:00,53.4,45.7,29.89,North,0,0.0,0.0,75,0.00,,,0.00,WUHU21623XXSP,2013-10-06 23:40:00,
2013-10-06 18:45:00,53.2,45.9,29.89,North,0,0.0,0.0,76,0.00,,,0.00,WUHU21623XXSP,2013-10-06 23:45:00,
2013-10-06 18:50:00,53.2,45.9,29.90,North,0,0.0,0.0,76,0.00,,,0.00,WUHU21623XXSP,2013-10-06 23:50:00,
2013-10-06 18:55:00,53.1,45.7,29.90,North,0,0.0,0.0,76,0.00,,,0.00,WUHU21623XXSP,2013-10-06 23:55:00,
2013-10-06 19:00:00,52.9,45.9,29.90,North,0,0.0,0.0,77,0.00,,,0.00,WUHU21623XXSP,2013-10-07 00:00:00,
2013-10-06 19:05:00,52.9,45.9,29.90,North,0,0.0,0.0,77,0.00,,,0.00,WUHU21623XXSP,2013-10-07 00:05:00,
2013-10-06 19:10:00,52.9,45.9,29.90,North,0,0.0,0.0,77,0.00,,,0.00,WUHU21623XXSP,2013-10-07 00:10:00,
2013-10-06 19:15:00,52.9,45.9,29.90,North,0,0.0,0.0,77,0.00,,,0.00,WUHU21623XXSP,2013-10-07 00:15:00,
2013-10-06 19:20:00,52.9,45.5,29.90,North,0,0.0,0.0,76,0.00,,,0.00,WUHU21623XXSP,2013-10-07 00:20:00,
2013-10-06 19:25:00,52.9,45.9,29.91,North,0,0.0,0.0,77,0.00,,,0.00,WUHU21623XXSP,2013-10-07 00:25:00,
2013-10-06 19:30:00,52.7,45.7,29.91,North,0,0.0,0.0,78,0.00,,,0.00,WUHU21623XXSP,2013-10-07 00:30:00,
2013-10-06 19:35:00,52.5,45.9,29.91,North,0,0.0,0.0,78,0.00,,,0.00,WUHU21623XXSP,2013-10-07 00:35:00,
2013-10-06 19:40:00,52.3,46.0,29.91,North,0,0.0,0.0,79,0.00,,,0.00,WUHU21623XXSP,2013-10-07 00:40:00,
2013-10-06 19:45:00,52.0,45.7,29.91,North,0,0.0,0.0,79,0.00,,,0.00,WUHU21623XXSP,2013-10-07 00:45:00,
2013-10-06 19:50:00,51.8,45.9,29.91,North,0,0.0,0.0,80,0.00,,,0.00,WUHU21623XXSP,2013-10-07 00:50:00,
2013-10-06 19:55:00,51.6,46.0,29.91,North,0,0.0,0.0,81,0.00,,,0.00,WUHU21623XXSP,2013-10-07 00:55:00,
2013-10-06 20:00:00,51.4,46.1,29.91,North,0,0.0,0.0,82,0.00,,,0.00,WUHU21623XXSP,2013-10-07 01:00:00,
2013-10-06 20:05:00,51.4,46.1,29.91,North,0,0.0,0.0,82,0.00,,,0.00,WUHU21623XXSP,2013-10-07 01:05:00,
2013-10-06 20:10:00,51.3,45.9,29.91,North,0,0.0,0.0,82,0.00,,,0.00,WUHU21623XXSP,2013-10-07 01:10:00,
2013-10-06 20:15:00,51.3,46.2,29.91,North,0,0.0,0.0,83,0.00,,,0.00,WUHU21623XXSP,2013-10-07 01:15:00,
2013-10-06 20:20:00,51.3,46.2,29.91,North,0,0.0,0.0,83,0.00,,,0.00,WUHU21623XXSP,2013-10-07 01:20:00,
2013-10-06 20:25:00,51.3,46.2,29.91,North,0,0.0,0.0,83,0.00,,,0.00,WUHU21623XXSP,2013-10-07 01:25:00,
2013-10-06 20:30:00,51.1,46.4,29.91,North,0,0.0,0.0,84,0.00,,,0.00,WUHU21623XXSP,2013-10-07 01:30:00,
2013-10-06 20:35:00,51.1,46.4,29.91,North,0,0.0,0.0,84,0.00,,,0.00,WUHU21623XXSP,2013-10-07 01:35:00,
2013-10-06 20:40:00,51.3,46.5,29.91,North,0,0.0,0.0,84,0.00,,,0.00,WUHU21623XXSP,2013-10-07 01:40:00,
2013-10-06 20:45:00,51.1,46.5,29.91,North,0,0.0,0.0,84,0.00,,,0.00,WUHU21623XXSP,2013-10-07 01:45:00,
2013-10-06 20:50:00,51.3,46.5,29.91,North,0,0.0,0.0,84,0.00,,,0.00,WUHU21623XXSP,2013-10-07 01:50:00,
2013-10-06 20:55:00,51.1,46.5,29.92,North,0,0.0,0.0,84,0.00,,,0.00,WUHU21623XXSP,2013-10-07 01:55:00,
2013-10-06 21:00:00,51.3,46.4,29.91,North,0,0.0,0.0,84,0.00,,,0.00,WUHU21623XXSP,2013-10-07 02:00:00,
2013-10-06 21:05:00,51.3,46.5,29.92,North,0,0.0,0.0,84,0.00,,,0.00,WUHU21623XXSP,2013-10-07 02:05:00,
2013-10-06 21:10:00,51.4,46.5,29.91,North,0,0.0,0.0,84,0.00,,,0.00,WUHU21623XXSP,2013-10-07 02:10:00,
2013-10-06 21:15:00,51.4,47.0,29.92,North,0,0.0,0.0,85,0.00,,,0.00,WUHU21623XXSP,2013-10-07 02:15:00,
2013-10-06 21:20:00,51.4,47.0,29.91,North,0,0.0,0.0,85,0.00,,,0.00,WUHU21623XXSP,2013-10-07 02:20:00,
2013-10-06 21:25:00,51.4,46.7,29.91,North,0,0.0,0.0,84,0.00,,,0.00,WUHU21623XXSP,2013-10-07 02:25:00,
2013-10-06 21:30:00,51.4,46.7,29.92,North,0,0.0,0.0,84,0.00,,,0.00,WUHU21623XXSP,2013-10-07 02:30:00,
2013-10-06 21:35:00,51.4,46.7,29.92,North,0,0.0,0.0,84,0.00,,,0.00,WUHU21623XXSP,2013-10-07 02:35:00,
2013-10-06 21:40:00,51.4,46.7,29.92,North,0,0.0,0.0,84,0.00,,,0.00,WUHU21623XXSP,2013-10-07 02:40:00,
2013-10-06 21:45:00,51.4,46.7,29.92,North,0,0.0,0.0,84,0.00,,,0.00,WUHU21623XXSP,2013-10-07 02:45:00,
2013-10-06 21:50:00,51.4,46.7,29.92,North,0,0.0,0.0,84,0.00,,,0.00,WUHU21623XXSP,2013-10-07 02:50:00,
2013-10-06 21:55:00,51.4,46.7,29.92,North,0,0.0,0.0,84,0.00,,,0.00,WUHU21623XXSP,2013-10-07 02:55:00,
2013-10-06 22:00:00,51.4,46.7,29.93,North,0,0.0,0.0,84,0.00,,,0.00,WUHU21623XXSP,2013-10-07 03:00:00,
2013-10-06 22:05:00,51.4,46.4,29.93,North,0,0.0,0.0,83,0.00,,,0.00,WUHU21623XXSP,2013-10-07 03:05:00,
2013-10-06 22:10:00,51.4,46.4,29.93,North,0,0.0,0.0,83,0.00,,,0.00,WUHU21623XXSP,2013-10-07 03:10:00,
2013-10-06 22:15:00,51.4,46.4,29.93,North,0,0.0,0.0,83,0.00,,,0.00,WUHU21623XXSP,2013-10-07 03:15:00,
2013-10-06 22:20:00,51.4,46.4,29.93,North,0,0.0,0.0,83,0.00,,,0.00,WUHU21623XXSP,2013-10-07 03:20:00,
2013-10-06 22:25:00,51.4,46.4,29.94,North,0,0.0,0.0,83,0.00,,,0.00,WUHU21623XXSP,2013-10-07 03:25:00,
2013-10-06 22:30:00,51.4,46.4,29.94,North,0,0.0,0.0,83,0.00,,,0.00,WUHU21623XXSP,2013-10-07 03:30:00,
2013-10-06 22:35:00,51.4,46.4,29.94,North,0,0.0,0.0,83,0.00,,,0.00,WUHU21623XXSP,2013-10-07 03:35:00,
2013-10-06 22:40:00,51.4,46.4,29.94,North,0,0.0,0.0,83,0.00,,,0.00,WUHU21623XXSP,2013-10-07 03:40:00,
2013-10-06 22:45:00,51.4,46.4,29.94,North,0,0.0,0.0,82,0.00,,,0.00,WUHU21623XXSP,2013-10-07 03:45:00,
2013-10-06 22:50:00,51.4,46.1,29.94,North,0,0.0,0.0,82,0.00,,,0.00,WUHU21623XXSP,2013-10-07 03:50:00,
2013-10-06 22:55:00,51.4,46.1,29.94,North,0,0.0,0.0,82,0.00,,,0.00,WUHU21623XXSP,2013-10-07 03:55:00,
2013-10-06 23:00:00,51.4,46.1,29.94,North,0,0.0,0.0,82,0.00,,,0.00,WUHU21623XXSP,2013-10-07 04:00:00,
2013-10-06 23:03:00,51.4,46.1,29.94,North,0,0.0,0.0,82,0.00,,,0.00,WUHU21623XXSP,2013-10-07 04:03:00,
2013-10-06 23:05:00,51.4,46.1,29.94,North,0,0.0,0.0,82,0.00,,,0.00,WUHU21623XXSP,2013-10-07 04:05:00,
2013-10-06 23:08:00,51.4,46.1,29.94,North,0,0.0,0.0,82,0.00,,,0.00,WUHU21623XXSP,2013-10-07 04:08:00,
2013-10-06 23:10:00,51.4,46.1,29.94,North,0,0.0,0.0,82,0.00,,,0.00,WUHU21623XXSP,2013-10-07 04:10:00,
2013-10-06 23:15:00,51.4,46.1,29.94,North,0,0.0,0.0,82,0.00,,,0.00,WUHU21623XXSP,2013-10-07 04:15:00,
2013-10-06 23:20:00,51.4,46.1,29.94,North,0,0.0,0.0,82,0.00,,,0.00,WUHU21623XXSP,2013-10-07 04:20:00,
2013-10-06 23:25:00,51.4,45.8,29.93,North,0,0.0,0.0,81,0.00,,,0.00,WUHU21623XXSP,2013-10-07 04:25:00,
2013-10-06 23:28:00,51.4,45.8,29.93,North,0,0.0,0.0,81,0.00,,,0.00,WUHU21623XXSP,2013-10-07 04:28:00,
2013-10-06 23:33:00,51.4,45.8,29.93,North,0,0.0,0.0,81,0.00,,,0.00,WUHU21623XXSP,2013-10-07 04:33:00,
2013-10-06 23:38:00,51.4,45.8,29.94,North,0,0.0,0.0,81,0.00,,,0.00,WUHU21623XXSP,2013-10-07 04:38:00,
2013-10-06 23:43:00,51.4,45.8,29.94,North,0,0.0,0.0,81,0.00,,,0.00,WUHU21623XXSP,2013-10-07 04:43:00,
2013-10-06 23:48:00,51.4,45.8,29.94,North,0,0.0,0.0,81,0.00,,,0.00,WUHU21623XXSP,2013-10-07 04:48:00,
2013-10-06 23:53:00,51.4,45.8,29.94,North,0,0.0,0.0,81,0.00,,,0.00,WUHU21623XXSP,2013-10-07 04:53:00,
2013-10-06 23:58:00,51.4,45.8,29.94,North,0,0.0,0.0,81,0.00,,,0.00,WUHU21623XXSP,2013-10-07 04:58:00,